TimeCST,TemperatureF,Dew PointF,Humidity,Sea Level PressureIn,VisibilityMPH,Wind Direction,Wind SpeedMPH,Gust SpeedMPH,PrecipitationIn,Events,Conditions,WindDirDegrees,DateUTC
12:13 AM,30.2,30.2,100,29.87,5.0,SE,10.4,-,N/A,,Overcast,130,2013-02-10 06:13:00
12:33 AM,30.2,28.4,93,29.87,5.0,SE,11.5,-,N/A,,Overcast,130,2013-02-10 06:33:00
12:53 AM,28.4,28.4,100,29.86,5.0,ESE,15.0,-,N/A,,Overcast,120,2013-02-10 06:53:00
1:13 AM,28.4,28.4,100,29.84,5.0,ESE,16.1,-,N/A,,Overcast,110,2013-02-10 07:13:00
1:32 AM,28.4,28.4,100,29.83,7.0,ESE,16.1,-,N/A,,Overcast,120,2013-02-10 07:32:00
1:53 AM,28.4,28.4,100,29.82,5.0,ESE,17.3,23.0,N/A,,Overcast,110,2013-02-10 07:53:00
2:13 AM,28.4,28.4,100,29.82,5.0,ESE,16.1,19.6,N/A,,Overcast,110,2013-02-10 08:13:00
2:32 AM,28.4,28.4,100,29.80,5.0,ESE,17.3,-,N/A,,Overcast,110,2013-02-10 08:32:00
2:53 AM,28.4,28.4,100,29.79,5.0,ESE,15.0,-,N/A,,Overcast,110,2013-02-10 08:53:00
3:13 AM,28.4,28.4,100,29.77,5.0,East,13.8,-,N/A,,Overcast,100,2013-02-10 09:13:00
3:32 AM,28.4,28.4,100,29.74,1.0,East,15.0,-,N/A,Snow,Light Snow,90,2013-02-10 09:32:00
3:53 AM,28.4,28.4,100,29.73,2.0,East,16.1,-,N/A,Snow,Light Snow,90,2013-02-10 09:53:00
4:13 AM,28.4,28.4,100,29.73,4.0,East,16.1,-,N/A,Snow,Light Snow,100,2013-02-10 10:13:00
4:32 AM,28.4,28.4,100,29.71,4.0,East,17.3,-,N/A,,Overcast,90,2013-02-10 10:32:00
4:53 AM,28.4,28.4,100,29.69,4.0,East,16.1,-,N/A,,Overcast,100,2013-02-10 10:53:00
5:13 AM,28.4,28.4,100,29.69,3.0,East,17.3,23.0,N/A,,Overcast,100,2013-02-10 11:13:00
5:32 AM,28.4,28.4,100,29.67,2.5,East,17.3,-,N/A,,Overcast,90,2013-02-10 11:32:00
5:53 AM,28.4,28.4,100,29.64,3.0,East,13.8,19.6,N/A,,Overcast,80,2013-02-10 11:53:00
6:13 AM,28.4,28.4,100,29.64,4.0,East,13.8,20.7,N/A,,Overcast,80,2013-02-10 12:13:00
6:32 AM,28.4,28.4,100,29.65,3.0,East,17.3,21.9,N/A,,Overcast,100,2013-02-10 12:32:00
6:53 AM,28.4,28.4,100,29.65,2.5,East,12.7,19.6,N/A,Snow,Light Snow,100,2013-02-10 12:53:00
7:13 AM,28.4,28.4,100,29.58,1.2,East,16.1,-,N/A,Snow,Light Snow,80,2013-02-10 13:13:00
7:32 AM,28.4,28.4,100,29.56,2.5,East,19.6,23.0,N/A,Snow,Light Snow,80,2013-02-10 13:32:00
7:53 AM,28.4,28.4,100,29.54,2.5,ENE,18.4,25.3,N/A,,Overcast,70,2013-02-10 13:53:00
8:13 AM,28.4,28.4,100,29.58,2.0,East,23.0,-,N/A,,Overcast,90,2013-02-10 14:13:00
8:32 AM,28.4,28.4,100,29.54,0.5,East,21.9,-,N/A,Snow,Light Snow,80,2013-02-10 14:32:00
8:53 AM,28.4,28.4,100,29.50,1.8,East,19.6,28.8,N/A,Snow,Light Snow,80,2013-02-10 14:53:00
9:13 AM,30.2,28.4,93,29.49,3.0,East,17.3,29.9,N/A,,Overcast,90,2013-02-10 15:13:00
9:32 AM,30.2,28.4,93,29.49,3.0,East,17.3,-,N/A,,Overcast,90,2013-02-10 15:32:00
9:53 AM,30.2,30.2,100,29.52,1.0,East,15.0,-,N/A,Snow,Light Snow,100,2013-02-10 15:53:00
10:13 AM,30.2,30.2,100,29.50,0.8,East,10.4,-,N/A,Snow,Light Snow,80,2013-02-10 16:13:00
10:33 AM,30.2,30.2,100,29.47,0.5,ENE,11.5,-,N/A,Snow,Light Snow,70,2013-02-10 16:33:00
10:53 AM,30.2,30.2,100,29.47,0.8,East,11.5,-,N/A,Snow,Light Snow,80,2013-02-10 16:53:00
11:12 AM,30.2,30.2,100,29.45,0.8,ENE,10.4,-,N/A,Snow,Light Snow,70,2013-02-10 17:12:00
11:33 AM,30.2,30.2,100,29.44,0.5,ENE,9.2,-,N/A,Snow,Light Snow,70,2013-02-10 17:33:00
11:53 AM,30.2,30.2,100,29.42,0.2,ENE,12.7,-,N/A,Snow,Snow,70,2013-02-10 17:53:00
12:12 PM,30.2,30.2,100,29.41,0.5,ENE,10.4,-,N/A,Snow,Light Snow,70,2013-02-10 18:12:00
12:33 PM,30.2,30.2,100,29.39,0.5,ENE,10.4,-,N/A,Snow,Light Snow,60,2013-02-10 18:33:00
12:53 PM,28.4,28.4,100,29.37,0.2,ENE,15.0,18.4,N/A,Snow,Snow,60,2013-02-10 18:53:00
1:12 PM,30.2,30.2,100,29.36,0.5,ENE,12.7,18.4,N/A,Snow,Snow,60,2013-02-10 19:12:00
1:33 PM,30.2,28.4,93,29.35,1.5,ENE,15.0,18.4,N/A,Snow,Light Snow,60,2013-02-10 19:33:00
1:53 PM,30.2,28.4,93,29.34,1.2,ENE,8.1,-,N/A,Snow,Light Snow,70,2013-02-10 19:53:00
2:12 PM,30.2,28.4,93,29.33,1.5,ENE,9.2,-,N/A,Snow,Light Snow,60,2013-02-10 20:12:00
2:33 PM,30.2,30.2,100,29.32,1.5,ENE,11.5,-,N/A,Snow,Light Snow,60,2013-02-10 20:33:00
2:53 PM,30.2,30.2,100,29.31,2.5,NE,10.4,-,N/A,Snow,Light Snow,50,2013-02-10 20:53:00
3:12 PM,28.4,28.4,100,29.31,2.5,NE,10.4,-,N/A,,Overcast,50,2013-02-10 21:12:00
3:33 PM,30.2,28.4,93,29.30,3.0,NE,10.4,-,N/A,,Overcast,50,2013-02-10 21:33:00
3:53 PM,30.2,30.2,100,29.30,2.0,NE,10.4,-,N/A,,Overcast,50,2013-02-10 21:53:00
4:12 PM,30.2,30.2,100,29.30,2.5,NNE,8.1,-,N/A,,Overcast,30,2013-02-10 22:12:00
4:33 PM,30.2,30.2,100,29.30,2.0,NNE,9.2,-,N/A,,Overcast,30,2013-02-10 22:33:00
4:53 PM,30.2,30.2,100,29.30,2.0,NNE,8.1,-,N/A,,Overcast,30,2013-02-10 22:53:00
5:12 PM,30.2,30.2,100,29.31,2.0,NNE,10.4,-,N/A,,Overcast,20,2013-02-10 23:12:00
5:33 PM,30.2,30.2,100,29.31,2.0,NNE,8.1,-,N/A,,Overcast,20,2013-02-10 23:33:00
5:53 PM,30.2,30.2,100,29.31,3.0,NNE,9.2,-,N/A,,Overcast,20,2013-02-10 23:53:00
6:12 PM,30.2,30.2,100,29.31,4.0,NNE,11.5,-,N/A,,Overcast,20,2013-02-11 00:12:00
6:33 PM,30.2,30.2,100,29.31,5.0,NNE,8.1,-,N/A,,Overcast,20,2013-02-11 00:33:00
6:53 PM,30.2,30.2,100,29.31,5.0,North,8.1,-,N/A,,Overcast,10,2013-02-11 00:53:00
7:12 PM,28.4,28.4,100,29.31,7.0,North,9.2,-,N/A,,Overcast,10,2013-02-11 01:12:00
7:33 PM,28.4,28.4,100,29.31,7.0,North,9.2,-,N/A,,Overcast,10,2013-02-11 01:33:00
7:53 PM,28.4,28.4,100,29.31,7.0,North,9.2,-,N/A,,Overcast,360,2013-02-11 01:53:00
8:12 PM,28.4,28.4,100,29.32,7.0,North,9.2,-,N/A,,Overcast,360,2013-02-11 02:12:00
8:33 PM,28.4,28.4,100,29.33,10.0,NNW,9.2,-,N/A,,Overcast,340,2013-02-11 02:33:00
8:53 PM,28.4,28.4,100,29.33,10.0,NNW,10.4,-,N/A,,Overcast,340,2013-02-11 02:53:00
9:12 PM,28.4,28.4,100,29.34,10.0,NNW,10.4,-,N/A,,Overcast,330,2013-02-11 03:12:00
9:33 PM,28.4,28.4,100,29.34,10.0,NNW,10.4,-,N/A,,Overcast,340,2013-02-11 03:33:00
9:53 PM,28.4,28.4,100,29.35,7.0,NNW,11.5,-,N/A,Snow,Light Snow,330,2013-02-11 03:53:00
10:13 PM,28.4,28.4,100,29.35,10.0,NNW,12.7,-,N/A,,Overcast,330,2013-02-11 04:13:00
10:33 PM,28.4,26.6,93,29.37,10.0,NNW,11.5,-,N/A,,Overcast,330,2013-02-11 04:33:00
10:52 PM,28.4,26.6,93,29.37,10.0,NNW,12.7,-,N/A,,Overcast,330,2013-02-11 04:52:00
11:13 PM,28.4,26.6,93,29.38,10.0,NW,11.5,-,N/A,,Overcast,320,2013-02-11 05:13:00
11:33 PM,28.4,26.6,93,29.39,10.0,NW,10.4,-,N/A,,Overcast,320,2013-02-11 05:33:00
11:52 PM,28.4,26.6,93,29.40,10.0,NNW,12.7,17.3,N/A,,Overcast,330,2013-02-11 05:52:00